Location: Ellingshausen
(50.5460°N, 10.4723°E)
Time: 07:26:03
(UTC+00:00)

MOS 1 Rocket - Pass Details

Date: 18 January 2026
Orbit: 608 x 815 km, 97.4° (Epoch: 18 February)

Event Time Altitude Azimuth Distance (km) Brightness Sun altitude
Rises 05:27:22 0° 17° (NNE) 3,031 6.6 -15.9°
Reaches altitude 10° 05:29:43 10° 22° (NNE) 2,082 5.9 -15.5°
Maximum altitude 05:34:06 49° 98° (E) 819 4.1 -14.8°
Drops below altitude 10° 05:38:17 10° 174° (S) 1,981 5.9 -14.2°
Sets 05:40:28 0° 180° (S) 2,868 6.7 -13.9°
